Location: Newark
(35.6799°N, 139.7636°E)
Time: 06:33:23
(UTC+00:00)

Courier 1B Rocket - Pass Details

Date: 10 December 2019
Orbit: 920 x 1202 km, 28.2° (Epoch: 20 January)

Event Time Altitude Azimuth Distance (km) Brightness Sun altitude
Rises 20:26:14 0° 233° (SW) 3,882 7.8 -14.6°
Reaches altitude 10° 20:29:22 10° 224° (SW) 2,878 7.2 -14.0°
Maximum altitude 20:35:23 32° 164° (SSE) 1,675 6.6 -12.8°
Drops below altitude 10° 20:41:05 10° 104° (ESE) 2,710 8.9 -11.7°
Sets 20:43:56 0° 95° (E) 3,623 9.7 -11.2°
